Location: Castagneto
(44.4833°N, 10.5833°E)
Time: 11:49:48
(UTC+00:00)

Daily predictions for brighter satellites

Satellite Brightness Start Highest point End
(mag) Time Altitude Azimuth Time Altitude Azimuth Time Altitude Azimuth
Cosmos 1464 Rocket 4.1 16:02:29 10° S 16:08:52 85° E 16:15:17 10° N
Cosmos 1340 Rocket 3.0 16:07:02 10° N 16:11:03 52° ENE 16:15:02 10° SSE
SJ 16-02 2.8 16:07:19 10° NNW 16:11:29 43° WSW 16:15:37 10° S
CZ-4C R/B 4.0 16:07:51 10° N 16:11:40 54° WNW 16:15:15 10° SSW
ISS -2.4 16:11:04 10° NW 16:14:00 26° N 16:16:57 10° ENE
Cosmos 1606 3.3 16:11:59 10° SSW 16:15:41 61° W 16:19:27 10° N
CZ-2D R/B 4.4 16:13:14 10° ESE 16:16:15 22° ENE 16:19:17 10° NNE
Lacrosse 5 rocket 3.2 16:16:02 10° NNW 16:18:14 14° NNE 16:20:29 10° NE
Nadezhda 4 Rocket 4.0 16:12:32 10° N 16:18:53 76° E 16:25:13 10° SSE
CZ-4B R/B 4.1 16:15:04 10° ESE 16:19:20 24° ENE 16:23:34 10° N
Cosmos 2360 4.5 16:16:02 10° NNW 16:21:34 46° ENE 16:27:02 10° SE
Cosmos 540 Rocket 4.1 16:18:09 10° SSE 16:22:48 36° ESE 16:27:28 10° NE
Meteor 1-20 Rocket 4.4 16:17:23 10° N 16:23:09 58° ENE 16:28:54 10° SSE
CZ-2C R/B 3.8 16:20:11 10° NE 16:24:01 21° E 16:27:50 10° SE
Cosmos 1500 Rocket 3.6 16:19:51 10° N 16:24:16 62° E 16:28:37 10° SSE
CZ-4C R/B 3.6 16:18:20 10° NNW 16:24:34 33° NE 16:31:45 10° E
CZ-4B R/B 3.0 16:22:12 10° S 16:26:19 80° WSW 16:30:14 10° NNW
SMAP 3.1 16:23:24 10° SSE 16:28:00 63° ENE 16:32:36 10° N
USA 305 4.4 16:26:15 10° WNW 16:29:40 23° N 16:32:56 11° NE
Cosmos 1500 4.2 16:26:38 10° NNE 16:29:45 24° ENE 16:32:51 10° SE
CZ-2C R/B 3.2 16:25:12 10° S 16:30:08 72° WSW 16:34:56 10° NNW
Cosmos 468 Rocket 3.9 16:27:19 10° SSW 16:32:26 75° ESE 16:37:38 10° NNE
Cosmos 1092 Rocket 4.1 16:27:21 10° N 16:33:39 59° ENE 16:39:52 10° SSE
Cosmos 1898 Rocket 3.5 16:30:05 10° NNW 16:35:20 67° ENE 16:40:30 10° SSE
Cosmos 1933 3.4 16:31:46 10° S 16:35:43 54° E 16:39:39 10° NNE
Cosmos 44 4.2 16:31:12 10° NW 16:35:47 50° WSW 16:40:06 10° SSE
Cosmos 1805 Rocket 3.7 16:31:36 10° N 16:35:49 48° ENE 16:40:00 10° SSE
Sich 1 3.5 16:32:26 10° N 16:36:27 38° ENE 16:40:28 10° SE
Cosmos 1842 Rocket 4.4 16:34:03 10° SSW 16:38:25 54° WNW 16:42:51 10° N
Cosmos 2221 3.6 16:34:28 10° SSW 16:38:33 45° WNW 16:42:42 10° N
PSLV R/B 3.8 16:37:50 10° SSE 16:41:22 47° ENE 16:44:57 10° N
deb Chang Zheng 4 4.1 16:47:16 10° SE 16:51:08 34° ENE 16:55:02 10° N
AQUARIUS 4.2 16:47:08 10° SSE 16:51:37 89° W 16:56:07 10° NNW
Cosmos 2084 3.7 16:47:41 10° NW 16:52:00 74° SW 16:56:29 10° SSE
H-2A R/B 2.0 16:48:53 10° SSE 16:53:58 58° ENE 16:58:56 10° N
Cosmos 1627 Rocket 4.4 16:48:11 10° N 16:54:22 71° E 17:00:27 10° SSE
NOSS 2-2 (C) 4.4 16:53:29 10° NNW 16:58:33 55° NE 17:05:37 10° SE
Cosmos 1666 3.4 16:56:11 10° NNE 16:59:28 29° ENE 17:02:44 10° SE
Cosmos 2322 Rocket 3.8 16:57:00 10° N 17:00:05 15° NE 17:00:05 15° NE
Cosmos 2279 Rocket 4.2 16:55:24 10° SSE 17:01:16 46° E 17:07:08 10° NNE
USA 306 4.5 16:58:38 10° NW 17:02:01 22° N 17:03:44 18° NNE
USA 267 3.7 16:58:13 14° NE 17:03:46 54° NNW 17:10:05 10° WSW
Cosmos 1697 Rocket 2.8 16:58:16 10° NNW 17:03:54 81° WSW 17:09:30 10° SSE
Cosmos 2369 3.6 17:01:32 10° NNW 17:07:18 73° ENE 17:12:59 10° SSE
Cosmos 1763 Rocket 4.2 17:02:26 10° SW 17:07:22 52° WNW 17:12:22 10° NNE
Cosmos 1980 Rocket 2.2 17:02:11 10° NNW 17:07:48 58° ENE 17:13:20 10° SE
Cosmos 1939 Rocket 4.3 17:03:55 10° S 17:07:50 42° W 17:11:45 10° NNW
COSMO-SKYMED 1 2.8 17:05:08 15° NNE 17:08:36 47° E 17:12:47 10° S
MOS 1-B Rocket 4.0 17:02:58 10° NNE 17:08:51 69° ESE 17:15:33 10° S
Meteor 1-5 Rocket 4.5 17:04:09 10° N 17:09:57 49° ENE 17:15:40 10° SSE
SL-24 R/B - RUBIN 2 3.5 17:08:09 10° NNW 17:12:38 58° NE 17:15:48 17° SE
Cosmos 841 Rocket 3.4 17:07:35 10° SSW 17:12:45 79° ESE 17:17:15 14° NNE
Meteor 2-21 4.4 17:07:21 10° N 17:13:29 87° E 17:19:31 10° S
Cosmos 1812 2.7 17:10:39 10° S 17:14:24 55° E 17:16:31 24° NNE
Cosmos 1634 Rocket 4.0 17:10:27 10° S 17:16:46 88° W 17:23:09 10° N
Cosmos 1937 Rocket 3.7 17:11:32 10° NNW 17:16:52 76° WSW 17:22:09 10° SSE
SL-16 R/B 3.3 17:13:06 10° N 17:17:26 23° NE 17:17:26 23° NE
Cosmos 1633 Rocket 3.2 17:15:31 10° N 17:19:47 49° ENE 17:24:02 10° SSE
Cosmos 2082 Rocket 2.1 17:14:40 10° SSW 17:20:19 74° ESE 17:24:27 19° NNE
USA 307 4.4 17:17:01 10° NW 17:20:26 23° N 17:21:20 21° NNE
USA 229 DEB 4.4 17:14:35 10° NW 17:21:54 64° WSW 17:29:37 10° SSE
USA 229 4.4 17:14:41 10° NW 17:22:00 65° WSW 17:29:43 10° SSE
Cosmos 2026 Rocket 4.2 17:19:11 10° NNW 17:25:18 70° W 17:31:18 10° S
Okean O Rocket 1.5 17:24:26 10° SSE 17:28:50 71° ENE 17:33:17 10° N
USA 276 4.3 17:28:07 10° W 17:30:44 24° SW 17:32:47 13° SSE
Cosmos 372 Rocket 3.9 17:25:57 10° NNW 17:31:13 88° WSW 17:36:27 10° SSE
Cosmos 2278 3.6 17:26:04 10° NNW 17:31:46 65° ENE 17:37:24 10° SE
SKYMED 3 4.4 17:29:31 18° NNE 17:32:45 86° ESE 17:37:06 10° SSW
Cosmos 1151 Rocket 2.9 17:30:58 10° S 17:35:17 87° E 17:38:08 21° N
Cosmos 1782 3.8 17:31:34 10° SSW 17:35:24 46° WNW 17:39:16 10° N
USA 234 3.9 17:30:42 10° SSE 17:37:05 55° SW 17:43:29 10° WNW
Cosmos 1655 Rocket 4.1 17:31:39 10° N 17:37:53 50° ENE 17:44:02 10° SSE
COSMOS 2406 3.9 17:32:33 10° SW 17:38:09 52° WNW 17:43:05 13° NNE
COSMOS 2455 3.0 17:33:59 10° SW 17:40:00 73° WNW 17:43:55 23° NNE
Meteor 2-15 4.4 17:35:13 10° S 17:41:10 57° E 17:45:42 18° NNE
ARGOS 3.1 17:37:05 10° SSE 17:42:31 88° WSW 17:47:57 10° NNW
USA 308 4.4 17:39:37 10° NW 17:42:51 23° N 17:42:51 23° N
Cosmos 1666 Rocket 3.7 17:40:14 10° NNW 17:44:41 73° W 17:49:03 10° S
Cosmos 1833 Rocket 4.0 17:39:41 10° WSW 17:44:51 36° NW 17:49:47 11° N
Cosmos 2180 Rocket 4.4 17:41:16 10° S 17:47:36 80° E 17:53:54 10° N
Meteor 2-6 Rocket 4.1 17:43:37 10° S 17:49:24 80° E 17:53:26 20° NNE
Cosmos 1328 Rocket 3.4 17:45:10 10° S 17:49:36 88° ESE 17:50:52 47° N
ISS -2.7 17:47:49 10° WNW 17:50:10 41° NW 17:50:10 41° NW
DMSP B5D2-2 4.3 17:57:01 51° SE 17:57:01 51° SE 18:01:26 10° S
SKYMED 2 4.3 17:53:45 19° N 17:56:41 53° WNW 18:00:54 10° SSW
Lacrosse 5 rocket 2.9 17:54:34 10° NW 17:56:30 24° NNW 17:56:30 24° NNW
NOAA 15 4.4 17:53:54 10° SSE 17:59:10 73° ENE 18:04:27 10° N
CZ-4B R/B 4.0 17:54:17 10° S 17:59:34 51° W 18:04:48 10° NNW
Cosmos 1570 Rocket 4.0 17:54:57 10° SSW 18:00:11 77° WNW 18:02:05 40° N
Meteor 2-8 Rocket 4.4 17:54:37 10° S 18:00:47 85° W 18:06:59 10° N
Landsat 5 3.7 18:00:26 55° NNW 18:01:04 65° WNW 18:05:00 10° SSW
Cosmos 2298 Rocket 4.4 17:56:22 10° NNW 18:00:27 47° NNE 18:00:27 47° NNE
ATLAS CENTAUR R/B 3.4 17:54:44 10° WSW 18:02:09 36° NW 18:03:24 31° N
SL-08 RB Rocket 3.8 17:57:45 10° S 18:02:23 78° WSW 18:07:02 10° NNW
GEOS 3 Rocket 3.5 18:02:08 68° E 18:02:30 71° NE 18:07:41 10° NNW
CZ-2C R/B 3.9 18:02:22 10° S 18:02:58 11° S 18:02:58 11° S
CZ-2C R/B 3.3 17:59:36 10° N 18:04:39 52° WNW 18:09:38 10° SW
Meteor 1-10 Rocket 4.1 18:01:40 10° S 18:07:28 82° E 18:09:02 50° NNE
Cosmos 1814 Rocket 4.5 18:02:49 10° SW 18:07:58 58° WNW 18:10:08 33° N
Meteor 1-11 Rocket 4.0 18:03:39 10° N 18:07:51 49° NNE 18:07:51 49° NNE
Cosmos 1818 3.6 18:04:06 10° NNW 18:09:03 64° NNE 18:09:03 64° NNE
Cosmos 44 Rocket 4.0 18:08:24 10° NNW 18:11:47 42° NNW 18:11:47 42° NNW
CZ-4C R/B 3.0 18:06:31 10° NW 18:13:53 82° SW 18:20:10 20° SSE
Cosmos 2360 Rocket 4.1 18:20:51 10° N 18:22:13 17° N 18:22:13 17° N
Cosmos 2322 Rocket 3.8 18:39:34 10° NNW 18:41:55 25° NNW 18:41:55 25° NNW
USA 267 4.4 18:45:34 31° N 18:45:59 31° N 18:51:33 10° WNW
Cosmos 1980 Rocket 4.4 18:47:06 10° NW 18:51:18 22° W 18:55:29 10° SSW
SL-16 R/B 3.7 18:56:34 10° NNW 18:59:21 30° NW 18:59:21 30° NW
Cosmos 2082 Rocket 4.2 19:00:46 10° W 19:05:01 21° NW 19:06:20 20° NNW
